Puebla, Mexico

8:44 AM CDT on July 23, 2017 (GMT -0500)
Hermanos Serdan International

Weather History for MMPB - August, 2013

Change the Weather History Date:

Sunday, August 25, 2013

  Actual Average Record
Temperature  
Mean Temperature 62 °F -  
Max Temperature 74 °F 71 °F 79 °F (2016)
Min Temperature 51 °F 51 °F 50 °F (2001)
Degree Days  
Heating Degree Days 2    
Growing Degree Days 12 (Base 50)    
Moisture  
Dew Point 51 °F    
Average Humidity 63    
Maximum Humidity 88    
Minimum Humidity 28    
Precipitation  
Precipitation 0.04 in - - ()
Sea Level Pressure  
Sea Level Pressure 30.18 in    
Wind  
Wind Speed 7 mph ()    
Max Wind Speed 18 mph    
Max Gust Speed 21 mph    
Visibility 9.2 miles    
Events Rain    
Averages and records for this station are not official NWS values.
T = Trace of Precipitation, MM = Missing Value Source: Averaged Metar Reports

Daily Weather History Graph

Daily Weather History Graph

Search for Another Location

Airport or City:

Trip Planner

Search our weather history database for the weather conditions in past years. The results will help you decide how hot, cold, wet, or windy it might be!

Date:

Astronomy

Aug. 25, 2013 Rise Set
Actual Time 7:16 AM CDT 7:52 PM CDT
Civil Twilight 6:54 AM CDT 8:15 PM CDT
Nautical Twilight 6:27 AM CDT 8:41 PM CDT
Astronomical Twilight 6:01 AM CDT 9:07 PM CDT
Moon 11:16 PM CDT (8/25) 11:30 AM CDT (8/25)
Length of Visible Light 13h 21m
Length of Day
12h 36m
Waning Gibbous, 75% of the Moon is Illuminated
Aug 25
Waning Gibbous
Aug 28
Last Quarter
Sep 5
New
Sep 12
First Quarter
Sep 19
Full

Hourly Weather History & Observations

Time (CDT) Temp. Dew Point Humidity Pressure Visibility Wind Dir Wind Speed Gust Speed Precip Events Conditions
12:58 AM 62 °F 46 °F 45% 29.77 in 3 mi Calm Calm - -   Scattered Clouds
5:47 AM 51.8 °F 48.2 °F 88% 30.31 in 6.0 mi NE 3.5 mph - N/A   Scattered Clouds
6:48 AM 51.8 °F 48.2 °F 88% 30.32 in 8.0 mi NW 5.8 mph - N/A   Mostly Cloudy
6:59 AM 54 °F 50 °F 80% 29.83 in 3 mi Calm Calm - -   Scattered Clouds
7:44 AM 51.8 °F 48.2 °F 88% 30.32 in 9.0 mi North 6.9 mph - N/A   Mostly Cloudy
8:43 AM 55.4 °F 51.8 °F 88% 30.33 in 9.0 mi NNW 6.9 mph - N/A   Mostly Cloudy
9:42 AM 64.4 °F 51.8 °F 64% 30.35 in 9.0 mi NNE 11.5 mph - N/A   Mostly Cloudy
10:46 AM 66.2 °F 50.0 °F 56% 30.34 in 11.0 mi NNW 15.0 mph - N/A   Mostly Cloudy
11:42 AM 69.8 °F 51.8 °F 53% 30.33 in 12.0 mi NNW 5.8 mph - N/A   Mostly Cloudy
12:42 PM 71.6 °F 51.8 °F 50% 30.32 in 12.0 mi North 10.4 mph - N/A   Mostly Cloudy
12:55 PM 70 °F 45 °F 30% 29.86 in 12 mi WNW 11.2 mph - -   Mostly Cloudy
1:42 PM 69.8 °F 50.0 °F 49% 30.30 in 11.0 mi NE 11.5 mph - N/A   Mostly Cloudy
2:42 PM 69.8 °F 53.6 °F 56% 30.29 in 12.0 mi NNW 10.4 mph - N/A   Mostly Cloudy
3:40 PM 71 °F 45 °F 28% 29.75 in 12 mi North 2.2 mph - -   Mostly Cloudy
3:43 PM 66.2 °F 53.6 °F 64% 30.27 in 8.0 mi NE 18.4 mph - N/A   Mostly Cloudy
3:59 PM 60.8 °F 55.4 °F 82% 30.26 in 6.0 mi NE 9.2 mph 20.7 mph N/A Rain Light Rain
4:23 PM 69.8 °F 53.6 °F 56% 30.25 in 10.0 mi ENE 15.0 mph - N/A   Mostly Cloudy
4:44 PM 71.6 °F 55.4 °F 57% 30.25 in 11.0 mi NE 9.2 mph - N/A   Mostly Cloudy
5:40 PM 66.2 °F 51.8 °F 60% 30.26 in 12.0 mi North 15.0 mph - N/A   Overcast
6:40 PM 67 °F 46 °F 36% 29.68 in 12 mi WNW 6.7 mph - -   Mostly Cloudy
6:45 PM 62.6 °F 51.8 °F 68% 30.26 in 11.0 mi North 11.5 mph - N/A   Overcast
7:46 PM 62.6 °F 51.8 °F 68% 30.27 in 11.0 mi North 12.7 mph - N/A   Mostly Cloudy
8:43 PM 60.8 °F 51.8 °F 72% 30.29 in 10.0 mi NNW 13.8 mph - N/A   Mostly Cloudy
9:43 PM 59.0 °F 51.8 °F 77% 30.31 in 10.0 mi North 9.2 mph - N/A   Mostly Cloudy
9:45 PM 63 °F 49 °F 51% 29.70 in 3 mi WNW 2.2 mph - -   Partly Cloudy
10:45 PM 59.0 °F 51.8 °F 77% 30.32 in 8.0 mi NW 15.0 mph - N/A   Mostly Cloudy
10:58 PM 59.0 °F 53.6 °F 82% 30.33 in 8.0 mi NNW 11.5 mph - N/A Rain Light Rain